Location: Boiro
(42.6475°N, 8.8834°W)
Time: 02:28:32
(UTC+01:00)

Tiros 1 despin weight - Pass Details

Date: 04 December 2021
Orbit: 592 x 641 km, 48.2° (Epoch: 23 January)

Event Time Altitude Azimuth Distance (km) Brightness Sun altitude
Rises 18:01:37 0° 289° (WNW) 2,826 ? -0.7°
Reaches altitude 10° 18:04:00 10° 297° (WNW) 1,923 ? -1.1°
Maximum altitude 18:08:13 43° 9° (N) 832 ? -1.8°
Drops below altitude 10° 18:12:26 10° 82° (E) 1,926 ? -2.5°
Enters shadow 18:14:47 - 89° (E) 2,822 ? -2.8°
Sets 18:14:48 0° 89° (E) 2,832 - -2.8°
